period_start,C,m1,H,J0,J1,J2,J3,J4,J5,JA,JB,JC,JD,JJ,JK,JN,#
2018-07-26 00:03:09,-0.02,0.63,0.00,23.50,26.90,29.49,13.85,46.86,1018.51,2030.69,3170.86,2919.89,3335.00,599.48,595.75,54.73,0000 0000 0000 0000 000000
2018-07-26 00:08:11,-0.01,0.63,0.00,23.53,26.92,29.52,13.93,46.76,1018.56,2030.16,3170.31,2919.40,3334.99,600.07,596.18,54.78,0000 0000 0000 0000 000000
2018-07-26 00:13:12,0.00,0.63,0.00,23.56,26.95,29.53,13.90,46.71,1018.56,2030.04,3170.04,2919.10,3334.89,599.80,595.87,54.83,0000 0000 0000 0000 000000
2018-07-26 00:18:13,0.01,0.63,0.00,23.60,26.97,29.55,13.87,46.80,1018.54,2030.01,3170.00,2919.00,3334.11,599.59,595.51,54.88,0000 0000 0000 0000 000000
2018-07-26 00:23:14,0.00,0.63,0.00,23.64,26.99,29.58,13.90,46.76,1018.54,2030.00,3169.96,2919.00,3334.01,600.06,595.85,54.93,0000 0000 0000 0000 000000
2018-07-26 00:28:16,0.00,0.63,0.00,23.67,27.01,29.60,13.92,46.76,1018.55,2030.00,3169.85,2918.98,3334.00,599.98,595.83,54.98,0000 0000 0000 0000 000000
2018-07-26 00:33:17,0.05,0.63,0.00,23.70,27.04,29.62,13.93,46.72,1018.53,2030.00,3169.13,2918.22,3333.36,600.03,595.81,55.03,0000 0000 0000 0000 000000
2018-07-26 00:38:18,0.00,0.63,0.00,23.72,27.06,29.65,13.88,46.73,1018.51,2029.99,3168.98,2918.00,3333.00,599.75,595.46,55.08,0000 0000 0000 0000 000000
2018-07-26 00:43:19,0.00,0.63,0.00,23.76,27.09,29.67,13.90,46.70,1018.51,2029.97,3168.64,2917.98,3332.98,599.93,595.60,55.13,0000 0000 0000 0000 000000
2018-07-26 00:48:21,0.01,0.63,0.00,23.78,27.11,29.72,13.93,46.80,1018.49,2029.95,3168.31,2917.97,3332.91,600.27,595.82,55.18,0000 0000 0000 0000 000000
2018-07-26 00:53:22,0.01,0.63,0.00,23.81,27.13,29.72,13.95,46.77,1018.49,2029.89,3168.04,2917.88,3332.40,600.37,595.92,55.23,0000 0000 0000 0000 000000
2018-07-26 00:58:23,-0.01,0.63,0.00,23.86,27.16,29.75,13.91,46.74,1018.51,2029.63,3168.00,2917.32,3332.06,600.11,595.39,55.28,0000 0000 0000 0000 000000
2018-07-26 01:03:24,-0.03,0.63,0.00,23.89,27.19,29.77,14.00,46.76,1018.52,2029.12,3167.94,2917.02,3331.99,600.50,595.74,55.33,0000 0000 0000 0000 000000
2018-07-26 01:08:25,0.01,0.63,0.00,23.91,27.21,29.79,13.93,46.58,1018.45,2029.02,3167.58,2917.00,3331.85,600.27,595.56,55.38,0000 0000 0000 0000 000000
2018-07-26 01:13:27,0.01,0.63,0.00,23.95,27.24,29.82,13.89,46.63,1018.47,2029.00,3167.04,2916.97,3331.23,600.19,595.37,55.43,0000 0000 0000 0000 000000
2018-07-26 01:18:28,0.00,0.63,0.00,23.98,27.27,29.86,13.93,46.81,1018.48,2029.00,3167.00,2916.77,3331.01,599.74,594.85,55.49,0000 0000 0000 0000 000000
2018-07-26 01:23:28,0.02,0.64,0.00,24.03,27.30,29.88,13.87,46.77,1018.40,2029.00,3166.93,2916.16,3330.99,599.89,594.90,55.54,0000 0000 0000 0000 000000
2018-07-26 01:28:30,0.02,0.64,0.00,24.07,27.33,29.91,13.92,46.70,1018.37,2028.99,3166.32,2916.00,3330.69,600.31,595.22,55.59,0000 0000 0000 0000 000000
2018-07-26 01:33:31,0.01,0.64,0.00,24.10,27.36,29.94,13.86,46.85,1018.52,2028.96,3166.02,2916.00,3330.06,600.07,595.07,55.64,0000 0000 0000 0000 000000
2018-07-26 01:38:32,-0.01,0.64,0.00,24.13,27.39,29.97,13.86,46.66,1018.56,2028.83,3166.00,2915.98,3330.00,600.00,595.09,55.69,0000 0000 0000 0000 000000
2018-07-26 01:43:34,-0.03,0.63,0.00,24.17,27.42,29.98,13.82,46.77,1018.57,2028.46,3165.98,2915.75,3329.99,600.14,594.81,55.74,0000 0000 0000 0000 000000
2018-07-26 01:48:35,0.01,0.63,0.00,24.20,27.45,30.02,13.82,46.74,1018.57,2028.08,3165.59,2915.07,3329.52,599.66,594.43,55.79,0000 0000 0000 0000 000000
2018-07-26 01:53:36,0.00,0.64,0.00,24.25,27.48,30.07,13.85,46.71,1018.57,2028.01,3165.16,2915.00,3329.05,599.83,594.52,55.84,0000 0000 0000 0000 000000
2018-07-26 01:58:37,0.00,0.64,0.00,24.31,27.51,30.10,13.83,46.67,1018.57,2028.00,3165.01,2914.98,3328.99,600.08,594.67,55.89,0000 0000 0000 0000 000000
2018-07-26 02:03:39,0.00,0.64,0.00,24.33,27.55,30.13,13.92,46.77,1018.57,2028.00,3164.97,2914.81,3328.90,599.86,594.47,55.94,0000 0000 0000 0000 000000
2018-07-26 02:08:40,0.04,0.64,0.00,24.37,27.58,30.16,13.86,46.75,1018.57,2027.97,3164.56,2914.22,3328.24,600.27,594.79,55.99,0000 0000 0000 0000 000000
2018-07-26 02:13:41,0.00,0.64,0.00,24.41,27.61,30.19,13.84,46.73,1018.57,2027.93,3164.02,2914.00,3328.01,599.81,594.11,56.04,0000 0000 0000 0000 000000
2018-07-26 02:18:42,-0.03,0.64,0.00,24.45,27.65,30.22,13.83,46.73,1018.57,2027.67,3163.99,2913.99,3327.94,599.41,593.73,56.09,0000 0000 0000 0000 000000
2018-07-26 02:23:44,-0.01,0.64,0.00,24.50,27.68,30.26,13.81,46.63,1018.57,2027.14,3163.70,2913.64,3327.24,600.12,594.16,56.14,0000 0000 0000 0000 000000
2018-07-26 02:28:45,0.01,0.64,0.00,24.54,27.72,30.29,13.86,46.65,1018.57,2027.01,3163.07,2913.06,3327.00,600.29,594.39,56.19,0000 0000 0000 0000 000000
2018-07-26 02:33:46,0.00,0.64,0.00,24.57,27.75,30.30,13.84,46.69,1018.57,2027.00,3163.00,2913.00,3326.99,599.98,593.98,56.24,0000 0000 0000 0000 000000
2018-07-26 02:38:47,0.00,0.64,0.00,24.60,27.79,30.35,13.92,46.69,1018.57,2026.99,3162.98,2913.00,3326.71,600.10,593.95,56.29,0000 0000 0000 0000 000000
2018-07-26 02:43:49,0.02,0.64,0.00,24.64,27.82,30.36,13.80,46.71,1018.57,2026.98,3162.49,2912.84,3326.06,599.80,593.71,56.34,0000 0000 0000 0000 000000
2018-07-26 02:48:50,0.01,0.64,0.00,24.68,27.86,30.43,13.83,46.71,1018.57,2026.86,3162.03,2912.13,3326.00,599.84,593.60,56.40,0000 0000 0000 0000 000000
2018-07-26 02:53:51,-0.03,0.64,0.00,24.74,27.90,30.47,13.78,46.70,1018.57,2026.51,3162.00,2912.00,3325.81,599.63,593.30,56.45,0000 0000 0000 0000 000000
2018-07-26 02:58:53,-0.01,0.64,0.00,24.78,27.93,30.49,13.83,46.67,1018.57,2026.08,3161.86,2912.00,3325.13,600.02,593.68,56.50,0000 0000 0000 0000 000000
2018-07-26 03:03:54,0.00,0.64,0.00,24.82,27.97,30.54,13.86,46.68,1018.57,2026.01,3161.25,2911.94,3325.00,599.96,593.38,56.55,0000 0000 0000 0000 000000
2018-07-26 03:08:55,0.02,0.64,0.00,24.85,28.01,30.59,13.84,46.77,1018.57,2026.00,3161.00,2911.43,3324.86,599.28,592.86,56.60,0000 0000 0000 0000 000000
2018-07-26 03:13:56,0.02,0.64,0.00,24.88,28.04,30.62,13.85,46.73,1018.57,2025.99,3160.98,2911.03,3324.18,599.87,593.24,56.65,0000 0000 0000 0000 000000
2018-07-26 03:18:57,0.00,0.64,0.00,24.91,28.08,30.65,13.81,46.63,1018.57,2025.95,3160.63,2911.00,3324.00,599.59,592.98,56.70,0000 0000 0000 0000 000000
2018-07-26 03:23:59,0.01,0.64,0.00,24.96,28.12,30.69,13.85,46.67,1018.57,2025.77,3160.05,2910.71,3323.81,600.12,593.43,56.75,0000 0000 0000 0000 000000
2018-07-26 03:29:00,-0.03,0.64,0.00,25.00,28.16,30.72,13.84,46.52,1018.57,2025.16,3160.00,2910.08,3323.10,599.91,593.21,56.80,0000 0000 0000 0000 000000
2018-07-26 03:34:01,0.00,0.64,0.00,25.02,28.19,30.76,13.85,46.63,1018.57,2025.02,3159.49,2910.00,3322.98,600.07,593.18,56.85,0000 0000 0000 0000 000000
2018-07-26 03:39:02,0.01,0.64,0.00,25.07,28.23,30.79,13.85,46.68,1018.57,2025.00,3159.01,2909.94,3322.57,600.00,593.06,56.90,0000 0000 0000 0000 000000
2018-07-26 03:44:03,0.02,0.64,0.00,25.11,28.26,30.82,13.82,46.54,1018.57,2024.99,3158.97,2909.36,3322.03,599.64,592.58,56.95,0000 0000 0000 0000 000000
2018-07-26 03:49:05,0.00,0.64,0.00,25.15,28.30,30.87,13.87,46.62,1018.58,2024.93,3158.61,2909.01,3321.97,599.93,592.83,57.00,0000 0000 0000 0000 000000
2018-07-26 03:54:07,-0.01,0.64,0.00,25.18,28.34,30.92,13.77,46.52,1018.58,2024.70,3158.05,2908.99,3321.48,599.90,592.64,57.05,0000 0000 0000 0000 000000
2018-07-26 03:59:08,-0.04,0.64,0.00,25.23,28.38,30.96,13.71,46.63,1018.58,2024.08,3158.00,2908.78,3321.01,599.56,592.29,57.10,0000 0000 0000 0000 000000
2018-07-26 04:04:09,0.02,0.64,0.00,25.26,28.41,31.00,13.79,46.53,1018.57,2024.01,3157.62,2908.12,3320.92,600.15,592.71,57.15,0000 0000 0000 0000 000000
2018-07-26 04:09:11,0.01,0.64,0.00,25.28,28.45,31.04,13.70,46.55,1018.57,2024.00,3157.08,2908.00,3320.28,599.78,592.39,57.20,0000 0000 0000 0000 000000
2018-07-26 04:14:12,0.00,0.64,0.00,25.33,28.49,31.08,13.89,46.67,1018.58,2023.99,3156.99,2907.95,3320.00,600.30,592.79,57.25,0000 0000 0000 0000 000000
2018-07-26 04:19:13,0.02,0.64,0.00,25.36,28.52,31.11,13.82,46.80,1018.58,2023.91,3156.69,2907.41,3319.80,600.13,592.56,57.30,0000 0000 0000 0000 000000
2018-07-26 04:24:15,-0.04,0.64,0.00,25.39,28.56,31.13,13.82,46.63,1018.58,2023.35,3156.03,2907.01,3319.07,600.24,592.74,57.35,0000 0000 0000 0000 000000
2018-07-26 04:29:16,-0.01,0.64,0.00,25.43,28.60,31.16,13.77,46.58,1018.59,2023.06,3156.00,2906.98,3318.99,600.00,592.39,57.41,0000 0000 0000 0000 000000
2018-07-26 04:34:17,0.03,0.64,0.00,25.46,28.63,31.20,13.77,46.74,1018.59,2023.00,3155.67,2906.78,3318.61,599.69,591.93,57.46,0000 0000 0000 0000 000000
2018-07-26 04:39:18,0.03,0.64,0.00,25.48,28.66,31.25,13.82,46.62,1018.59,2023.00,3155.10,2906.22,3318.05,599.83,592.15,57.51,0000 0000 0000 0000 000000
2018-07-26 04:44:20,0.00,0.64,0.00,25.52,28.70,31.28,13.85,46.66,1018.59,2023.00,3155.00,2906.00,3318.00,600.10,592.12,57.56,0000 0000 0000 0000 000000
2018-07-26 04:49:21,0.00,0.64,0.00,25.54,28.73,31.32,13.83,46.82,1018.59,2022.92,3154.89,2906.00,3317.58,599.99,592.11,57.61,0000 0000 0000 0000 000000
2018-07-26 04:54:22,-0.03,0.64,0.00,25.57,28.77,31.35,13.77,46.54,1018.60,2022.36,3154.17,2905.59,3317.02,600.06,591.98,57.66,0000 0000 0000 0000 000000
2018-07-26 04:59:23,0.00,0.64,0.00,25.60,28.80,31.39,13.77,46.80,1018.64,2022.05,3154.00,2905.06,3316.98,599.63,591.63,57.71,0000 0000 0000 0000 000000
2018-07-26 05:04:25,0.01,0.64,0.00,25.63,28.83,31.42,13.82,46.84,1018.80,2022.01,3153.92,2905.00,3316.46,600.12,592.27,57.76,0000 0000 0000 0000 000000
2018-07-26 05:09:26,0.01,0.64,0.00,25.66,28.87,31.45,13.79,46.70,1018.85,2022.00,3153.35,2904.98,3316.01,599.95,591.91,57.81,0000 0000 0000 0000 000000
2018-07-26 05:14:28,0.00,0.64,0.00,25.67,28.90,31.49,13.77,46.58,1018.75,2022.00,3153.02,2904.84,3315.99,599.82,591.80,57.86,0000 0000 0000 0000 000000
2018-07-26 05:19:29,0.02,0.64,0.00,25.70,28.93,31.50,13.82,46.67,1018.89,2021.97,3153.00,2904.17,3315.73,599.95,591.98,57.91,0000 0000 0000 0000 000000
2018-07-26 05:24:30,-0.02,0.64,0.00,25.73,28.96,31.54,13.88,46.58,1018.96,2021.70,3152.79,2904.01,3315.08,600.06,592.04,57.96,0000 0000 0000 0000 000000
2018-07-26 05:29:31,-0.02,0.64,0.00,25.77,29.00,31.56,13.86,46.58,1019.01,2021.19,3152.11,2903.99,3314.99,600.43,592.34,58.01,0000 0000 0000 0000 000000
2018-07-26 05:34:33,0.02,0.64,0.00,25.81,29.02,31.58,13.70,46.62,1019.04,2021.02,3151.99,2903.68,3314.51,599.93,591.80,58.06,0000 0000 0000 0000 000000
2018-07-26 05:39:35,0.02,0.64,0.00,25.83,29.06,31.62,13.80,46.60,1019.04,2021.00,3151.67,2903.10,3314.02,600.36,592.13,58.11,0000 0000 0000 0000 000000
2018-07-26 05:44:36,0.00,0.64,0.00,25.85,29.09,31.66,13.84,46.68,1019.01,2021.00,3151.10,2903.00,3314.00,600.25,592.03,58.16,0000 0000 0000 0000 000000
2018-07-26 05:49:37,0.00,0.64,0.00,25.88,29.12,31.68,13.79,46.59,1019.00,2020.99,3151.01,2903.00,3313.79,599.82,591.57,58.21,0000 0000 0000 0000 000000
2018-07-26 05:54:38,0.01,0.64,0.00,25.89,29.15,31.72,13.88,46.63,1019.03,2020.95,3150.92,2902.79,3313.07,599.98,591.63,58.26,0000 0000 0000 0000 000000
2018-07-26 05:59:39,0.00,0.65,0.00,25.93,29.18,31.73,13.79,46.73,1019.05,2020.76,3150.44,2902.27,3313.00,600.04,591.58,58.32,0000 0000 0000 0000 000000
2018-07-26 06:04:41,-0.04,0.64,0.00,25.94,29.21,31.77,13.79,46.67,1019.06,2020.19,3150.01,2902.00,3312.80,599.94,591.45,58.37,0000 0000 0000 0000 000000
2018-07-26 06:09:42,0.00,0.64,0.00,25.97,29.24,31.83,13.77,46.51,1019.06,2020.03,3149.99,2901.99,3312.12,599.57,591.13,58.42,0000 0000 0000 0000 000000
2018-07-26 06:14:43,0.00,0.64,0.00,25.99,29.26,31.84,13.76,46.60,1019.06,2020.00,3149.81,2901.95,3312.01,599.88,591.40,58.47,0000 0000 0000 0000 000000
2018-07-26 06:19:45,0.01,0.64,0.00,26.02,29.29,31.87,13.81,46.55,1019.06,2020.00,3149.24,2901.69,3312.00,599.74,591.22,58.52,0000 0000 0000 0000 000000
2018-07-26 06:24:46,0.02,0.65,0.00,26.06,29.32,31.91,13.82,46.48,1019.06,2020.00,3149.01,2901.10,3311.76,600.02,591.36,58.57,0000 0000 0000 0000 000000
2018-07-26 06:29:47,0.01,0.65,0.00,26.08,29.35,31.92,13.75,46.53,1019.06,2020.00,3148.98,2901.01,3311.16,599.92,591.27,58.62,0000 0000 0000 0000 000000
2018-07-26 06:34:48,0.00,0.65,0.00,26.11,29.38,31.95,13.74,46.52,1019.06,2019.96,3148.65,2900.99,3311.00,599.99,591.29,58.67,0000 0000 0000 0000 000000
2018-07-26 06:39:50,-0.02,0.65,0.00,26.12,29.41,31.98,13.73,46.39,1019.06,2019.63,3148.05,2900.82,3310.82,599.90,591.07,58.72,0000 0000 0000 0000 000000
2018-07-26 06:44:51,-0.01,0.65,0.00,26.16,29.43,31.99,13.71,46.42,1019.05,2019.23,3148.00,2900.28,3310.14,600.01,591.16,58.77,0000 0000 0000 0000 000000
2018-07-26 06:49:52,0.00,0.64,0.00,26.17,29.46,32.01,13.82,46.58,1019.01,2019.07,3147.93,2900.06,3310.01,600.13,591.23,58.82,0000 0000 0000 0000 000000
2018-07-26 06:54:54,0.00,0.64,0.00,26.21,29.49,32.05,13.83,46.79,1019.00,2019.00,3147.49,2900.00,3309.97,599.85,590.87,58.87,0000 0000 0000 0000 000000
2018-07-26 06:59:55,0.01,0.65,0.00,26.23,29.51,32.07,13.84,46.70,1019.00,2019.00,3147.05,2899.99,3309.73,600.33,591.33,58.92,0000 0000 0000 0000 000000
2018-07-26 07:04:57,0.01,0.65,0.00,26.27,29.54,32.09,13.76,46.56,1019.01,2019.00,3147.00,2899.94,3309.09,600.02,590.96,58.97,0000 0000 0000 0000 000000
2018-07-26 07:09:58,0.02,0.65,0.00,26.31,29.57,32.12,13.83,46.62,1019.03,2018.98,3146.97,2899.48,3309.00,600.13,591.02,59.02,0000 0000 0000 0000 000000
2018-07-26 07:14:59,0.01,0.65,0.00,26.34,29.60,32.15,13.81,46.67,1019.05,2018.96,3146.57,2899.07,3308.92,599.96,590.81,59.07,0000 0000 0000 0000 000000
2018-07-26 07:20:00,-0.02,0.65,0.00,26.38,29.62,32.16,13.79,46.73,1019.06,2018.65,3146.04,2899.00,3308.28,600.48,591.17,59.12,0000 0000 0000 0000 000000
2018-07-26 07:25:02,-0.04,0.64,0.00,26.41,29.65,32.20,13.78,46.80,1019.06,2018.07,3145.94,2898.92,3308.00,600.25,590.85,59.17,0000 0000 0000 0000 000000
2018-07-26 07:30:03,0.01,0.65,0.00,26.44,29.68,32.22,13.73,46.92,1019.06,2018.04,3145.65,2898.62,3307.97,599.81,590.27,59.22,0000 0000 0000 0000 000000
2018-07-26 07:35:04,0.02,0.65,0.00,26.47,29.71,32.24,13.76,46.80,1019.06,2018.00,3145.12,2898.24,3307.55,599.98,590.56,59.28,0000 0000 0000 0000 000000
2018-07-26 07:40:05,0.01,0.65,0.00,26.51,29.73,32.28,13.79,46.64,1019.06,2018.00,3145.00,2898.03,3307.06,599.97,590.42,59.33,0000 0000 0000 0000 000000
2018-07-26 07:45:07,0.00,0.65,0.00,26.54,29.76,32.31,13.77,46.49,1019.06,2018.00,3145.00,2898.00,3307.00,600.23,590.61,59.38,0000 0000 0000 0000 000000
2018-07-26 07:50:08,0.00,0.65,0.00,26.57,29.78,32.33,13.82,46.69,1019.06,2018.00,3144.79,2897.99,3306.93,600.29,590.73,59.43,0000 0000 0000 0000 000000
2018-07-26 07:55:10,0.02,0.65,0.00,26.61,29.81,32.35,13.73,46.44,1019.06,2017.87,3144.06,2897.68,3306.17,600.22,590.48,59.48,0000 0000 0000 0000 000000
2018-07-26 08:00:11,-0.03,0.65,0.00,26.65,29.84,32.38,13.78,46.96,1019.07,2017.50,3143.97,2897.11,3305.99,600.48,590.67,59.53,0000 0000 0000 0000 000000
2018-07-26 08:05:12,0.01,0.65,0.00,26.68,29.86,32.42,13.84,47.30,1019.07,2017.08,3143.18,2896.94,3305.19,600.55,590.57,59.58,0000 0000 0000 0000 000000
2018-07-26 08:10:13,0.02,0.65,0.00,26.73,29.90,32.44,13.80,47.28,1019.08,2017.00,3142.94,2896.37,3304.92,600.50,590.50,59.63,0000 0000 0000 0000 000000
2018-07-26 08:15:14,0.03,0.65,0.00,26.76,29.93,32.48,13.78,47.35,1019.06,2017.00,3142.10,2896.01,3304.07,599.81,589.80,59.68,0000 0000 0000 0000 000000
2018-07-26 08:20:16,0.01,0.65,0.00,26.78,29.96,32.49,13.79,47.17,1019.07,2016.99,3141.98,2895.75,3303.90,600.07,590.00,59.73,0000 0000 0000 0000 000000
2018-07-26 08:25:17,0.03,0.65,0.00,26.81,29.99,32.54,13.74,47.08,1019.07,2016.97,3141.63,2895.09,3303.16,600.18,590.05,59.78,0000 0000 0000 0000 000000
2018-07-26 08:30:18,0.00,0.65,0.00,26.85,30.02,32.57,13.74,46.83,1019.09,2016.93,3141.16,2895.01,3303.02,600.09,589.93,59.83,0000 0000 0000 0000 000000
2018-07-26 08:35:19,-0.04,0.65,0.00,26.87,30.05,32.57,13.79,46.89,1019.16,2016.57,3141.01,2895.00,3302.98,599.93,589.66,59.88,0000 0000 0000 0000 000000
2018-07-26 08:40:20,-0.01,0.65,0.00,26.91,30.08,32.62,13.73,47.08,1019.34,2016.17,3140.97,2894.96,3302.54,600.28,590.13,59.93,0000 0000 0000 0000 000000
2018-07-26 08:45:21,0.01,0.65,0.00,26.93,30.11,32.66,13.80,47.27,1019.44,2016.06,3140.39,2894.63,3302.05,600.19,590.04,59.98,0000 0000 0000 0000 000000
2018-07-26 08:50:23,0.01,0.65,0.00,26.96,30.14,32.69,13.66,47.08,1019.38,2016.00,3140.01,2894.08,3301.99,599.58,589.53,60.03,0000 0000 0000 0000 000000
2018-07-26 08:55:24,0.01,0.65,0.00,26.97,30.17,32.72,13.75,47.40,1019.43,2016.00,3139.98,2894.00,3301.66,600.05,589.87,60.08,0000 0000 0000 0000 000000
2018-07-26 09:00:25,0.01,0.48,0.00,27.01,30.21,32.77,11.95,41.32,1019.45,2016.06,3233.37,2947.07,3372.98,529.10,520.12,0.01,0000 0000 0000 0000 000002
2018-07-26 09:05:27,0.01,0.00,0.00,27.05,30.24,32.81,13.77,47.23,1019.52,2016.19,3446.09,3069.09,3540.44,600.41,590.15,0.02,0000 0000 0000 0000 000000
2018-07-26 09:10:28,0.01,0.00,0.00,27.09,30.27,32.82,13.68,47.13,1019.53,2016.04,3444.01,3068.20,3538.99,599.73,589.27,0.07,0000 0000 0000 0000 000000
2018-07-26 09:15:29,0.01,0.00,0.00,27.11,30.30,32.84,13.76,47.08,1019.53,2016.00,3443.05,3067.98,3538.02,599.80,589.51,0.12,0000 0000 0000 0000 000000
2018-07-26 09:20:30,0.02,0.00,0.00,27.16,30.33,32.88,13.76,47.11,1019.55,2016.00,3442.31,3067.67,3537.14,600.02,589.50,0.18,0000 0000 0000 0000 000000
2018-07-26 09:25:31,0.02,0.00,0.00,27.19,30.36,32.91,13.74,47.09,1019.55,2015.99,3441.92,3067.07,3536.62,599.67,589.13,0.23,0000 0000 0000 0000 000000
2018-07-26 09:30:32,0.02,0.00,0.00,27.24,30.40,32.93,13.80,47.04,1019.55,2015.96,3441.12,3067.00,3535.99,600.17,589.63,0.28,0000 0000 0000 0000 000000
2018-07-26 09:35:33,0.01,0.00,0.00,27.27,30.43,32.94,13.69,47.11,1019.55,2015.80,3440.86,3066.82,3535.37,599.90,589.10,0.33,0000 0000 0000 0000 000000
2018-07-26 09:40:35,-0.02,0.00,0.00,27.30,30.46,32.97,13.72,47.08,1019.55,2015.19,3440.09,3066.13,3534.93,600.04,589.08,0.38,0000 0000 0000 0000 000000
2018-07-26 09:45:36,0.00,0.00,0.00,27.34,30.50,33.01,13.75,47.22,1019.55,2015.02,3439.96,3066.00,3534.16,599.65,588.74,0.43,0000 0000 0000 0000 000000
2018-07-26 09:50:38,0.01,0.00,0.00,27.38,30.53,33.05,13.78,47.32,1019.55,2015.00,3439.24,3065.95,3533.90,599.78,588.94,0.48,0000 0000 0000 0000 000000
2018-07-26 09:55:39,0.03,0.00,0.00,27.42,30.57,33.09,13.80,47.28,1019.55,2014.98,3438.92,3065.48,3533.13,600.11,589.06,0.53,0000 0000 0000 0000 000000
2018-07-26 10:00:40,0.01,0.01,0.00,27.45,30.61,33.12,13.69,47.23,1019.55,2014.82,3438.15,3065.01,3532.81,599.96,588.87,0.58,0000 0000 0000 0000 000000
2018-07-26 10:05:41,-0.04,0.00,0.00,27.49,30.64,33.16,13.70,47.17,1019.55,2014.31,3437.98,3064.98,3532.07,599.77,588.58,0.63,0000 0000 0000 0000 000000
2018-07-26 10:10:42,0.01,0.00,0.00,27.53,30.68,33.21,13.67,47.11,1019.55,2014.03,3437.24,3064.37,3531.79,599.70,588.45,0.68,0000 0000 0000 0000 000000
2018-07-26 10:15:44,0.02,0.01,0.00,27.57,30.72,33.23,13.80,47.26,1019.56,2014.00,3437.00,3064.04,3531.10,600.17,588.87,0.73,0000 0000 0000 0000 000000
2018-07-26 10:20:45,0.01,0.01,0.00,27.60,30.76,33.26,13.78,47.21,1019.56,2014.00,3436.65,3064.00,3530.91,600.08,588.69,0.78,0000 0000 0000 0000 000000
2018-07-26 10:25:46,0.02,0.01,0.00,27.64,30.80,33.31,13.62,47.12,1019.58,2013.97,3436.05,3063.86,3530.17,599.72,588.30,0.83,0000 0000 0000 0000 000000
2018-07-26 10:30:47,0.01,0.01,0.00,27.68,30.84,33.38,13.69,47.15,1019.57,2013.89,3435.97,3063.23,3529.97,599.64,588.13,0.88,0000 0000 0000 0000 000000
2018-07-26 10:35:49,-0.03,0.01,0.00,27.72,30.88,33.43,13.66,47.27,1019.58,2013.36,3435.23,3063.01,3529.18,599.65,588.26,0.93,0000 0000 0000 0000 000000
2018-07-26 10:40:50,-0.00,0.01,0.00,27.77,30.92,33.51,13.60,47.13,1019.58,2013.03,3434.95,3062.89,3528.88,599.70,588.09,0.98,0000 0000 0000 0000 000000
2018-07-26 10:45:51,0.04,0.01,0.00,27.82,30.97,33.58,13.65,47.23,1019.59,2013.00,3434.24,3062.20,3528.12,599.56,587.75,1.03,0000 0000 0000 0000 000000
2018-07-26 10:50:52,0.00,0.01,0.00,27.87,31.01,33.68,13.77,47.32,1019.71,2012.99,3434.00,3062.01,3527.95,600.15,588.34,1.08,0000 0000 0000 0000 000000
2018-07-26 10:55:53,0.01,0.01,0.00,27.94,31.05,33.75,13.77,47.49,1019.75,2012.91,3433.51,3061.96,3527.19,600.31,588.26,1.13,0000 0000 0000 0000 000000
2018-07-26 11:00:54,-0.02,0.01,0.00,28.03,31.09,33.82,13.72,47.52,1019.82,2012.56,3433.02,3061.46,3526.98,600.32,588.17,1.18,0000 0000 0000 0000 000000
2018-07-26 11:05:56,-0.00,0.01,0.00,28.14,31.13,33.91,13.66,47.43,1019.75,2012.09,3432.83,3061.02,3526.38,599.96,587.69,1.23,0000 0000 0000 0000 000000
2018-07-26 11:10:57,0.01,0.01,0.00,28.24,31.17,33.95,13.69,47.33,1019.71,2012.01,3432.11,3060.98,3526.00,599.93,587.42,1.28,0000 0000 0000 0000 000000
2018-07-26 11:15:58,0.02,0.01,0.00,28.34,31.21,34.03,13.65,47.10,1019.67,2012.00,3431.98,3060.55,3525.47,599.61,587.06,1.33,0000 0000 0000 0000 000000
2018-07-26 11:20:59,0.02,0.01,0.00,28.41,31.25,34.04,13.67,47.29,1019.70,2011.97,3431.46,3060.04,3525.01,599.92,587.03,1.38,0000 0000 0000 0000 000000
2018-07-26 11:26:01,-0.01,0.01,0.00,28.46,31.28,34.03,13.66,47.30,1019.79,2011.77,3431.01,3059.99,3524.55,599.77,586.81,1.43,0000 0000 0000 0000 000000
2018-07-26 11:31:02,-0.04,0.01,0.00,28.48,31.32,34.02,13.67,47.42,1019.66,2011.14,3430.68,3059.84,3524.03,599.73,586.66,1.48,0000 0000 0000 0000 000000
2018-07-26 11:36:03,0.02,0.01,0.00,28.52,31.35,34.01,13.72,47.34,1019.60,2011.04,3430.09,3059.35,3523.98,600.09,586.85,1.53,0000 0000 0000 0000 000000
2018-07-26 11:41:04,0.01,0.01,0.00,28.53,31.37,34.01,13.78,47.33,1019.66,2011.00,3429.99,3059.02,3523.25,600.13,586.98,1.58,0000 0000 0000 0000 000000
2018-07-26 11:46:05,0.01,0.01,0.00,28.53,31.40,34.05,13.62,47.50,1019.75,2010.99,3429.39,3058.98,3522.99,599.68,586.66,1.63,0000 0000 0000 0000 000000
2018-07-26 11:51:07,0.00,0.01,0.00,28.52,31.42,34.10,13.70,47.33,1019.87,2010.97,3429.02,3058.91,3522.83,599.95,587.00,1.68,0000 0000 0000 0000 000000
2018-07-26 11:56:08,0.02,0.01,0.00,28.47,31.44,34.14,13.73,47.42,1019.99,2010.93,3428.99,3058.44,3522.13,600.02,587.23,1.73,0000 0000 0000 0000 000000
2018-07-26 12:01:09,-0.01,0.01,0.00,28.43,31.45,34.15,13.63,47.30,1020.00,2010.59,3428.67,3058.05,3522.00,599.96,587.29,1.78,0000 0000 0000 0000 000000
2018-07-26 12:06:10,-0.02,0.01,0.00,28.35,31.47,34.17,13.69,47.38,1019.76,2010.40,3428.17,3058.01,3521.98,599.86,587.22,1.83,0000 0000 0000 0000 000000
2018-07-26 12:11:11,-0.01,0.01,0.00,28.25,31.47,34.19,13.72,47.47,1019.68,2010.13,3428.02,3058.00,3521.78,600.11,587.49,1.88,0000 0000 0000 0000 000000
2018-07-26 12:16:12,0.01,0.01,0.00,28.13,31.48,34.23,13.78,47.38,1019.70,2010.07,3428.00,3058.00,3521.14,600.42,588.16,1.93,0000 0000 0000 0000 000000
2018-07-26 12:21:13,0.00,0.01,0.00,28.04,31.50,34.34,13.72,47.45,1019.57,2010.02,3427.73,3057.97,3521.00,599.99,587.70,1.98,0000 0000 0000 0000 000000
2018-07-26 12:26:15,0.00,0.01,0.00,27.95,31.50,34.41,13.72,47.64,1019.57,2010.02,3427.45,3057.98,3521.00,599.97,587.87,2.03,0000 0000 0000 0000 000000
2018-07-26 12:31:16,0.00,0.01,0.00,27.88,31.50,34.47,13.75,47.67,1019.59,2010.00,3427.08,3057.95,3520.98,600.15,588.21,2.08,0000 0000 0000 0000 000000
2018-07-26 12:36:17,0.00,0.01,0.00,27.82,31.50,34.48,13.70,47.48,1019.59,2010.00,3427.00,3057.88,3520.92,599.74,587.91,2.13,0000 0000 0000 0000 000000
2018-07-26 12:41:18,0.01,0.01,0.00,27.79,31.50,34.49,13.76,47.55,1019.59,2010.00,3427.00,3057.71,3520.53,599.85,588.17,2.18,0000 0000 0000 0000 000000
2018-07-26 12:46:20,0.01,0.01,0.00,27.75,31.49,34.47,13.82,47.73,1019.70,2010.00,3426.98,3057.44,3520.04,599.90,588.48,2.23,0000 0000 0000 0000 000000
2018-07-26 12:51:21,0.00,0.01,0.00,27.71,31.47,34.44,13.75,47.62,1019.89,2010.00,3426.87,3057.32,3520.00,599.95,588.47,2.28,0000 0000 0000 0000 000000
2018-07-26 12:56:22,0.01,0.01,0.00,27.68,31.47,34.45,13.72,47.55,1019.96,2010.00,3426.48,3057.20,3520.00,599.89,588.61,2.33,0000 0000 0000 0000 000000